Home > Weather > Fukuoka > Past weeks

Flag for Japan Past Weather in Fukuoka, Japan — Yesterday and Last 2 Weeks

Now
73 °F

Light rain. Broken clouds.


Feels Like: 76 °F
Forecast: 70 / 77 °F
Wind: 5 mph from Southwest

Location: Fukuoka Airport

Current Time: Jun 25, 2016 at 8:56:10 AM

Latest Report: Jun 25, 2016 at 8:30 AM


Visibility: N/A

Pressure: 29.71 "Hg

Humidity: 69%

Dew Point: 63 °F

Location of FukuokaLocation

Past Weather in Fukuoka — Graph

°F

Fukuoka Temperature Yesterday

Maximum temperature yesterday: 88 °F (at 4:30 PM)
Minimum temperature yesterday: 73 °F (at 12:00 AM)
Average temperature yesterday: 81 °F

High & Low Weather Summary for the Past Weeks

 TemperatureHumidityPressure
High88 °F (Jun 15, 2:00 PM)94% (Jun 19, 4:30 AM)29.95 "Hg (Jun 19, 4:30 AM)
Low68 °F (Jun 17, 5:00 AM)40% (Jun 18, 12:30 PM)29.47 "Hg (Jun 16, 4:00 AM)
Average77 °F75%29.70 "Hg
* Reported Jun 10 7:00 AM — Jun 25 7:30 AM, Fukuoka, Weather by CustomWeather, © 2016

Note: Actual official high and low records may vary slightly from our data, if they occured in-between our weather recording intervals... More about our weather records

Advertising

Fukuoka Weather History for the Previous 24 Hours

Scroll right to see more
 ConditionsComfort  
Time TempWeatherWind HumidityBarometerVisibility
7:30 AM
Sat, Jun 25
73 °FLight rain. Broken clouds.5 mph69%29.68 "HgN/A
7:00 AM73 °FLight rain. Partly sunny.8 mph65%29.68 "HgN/A
6:30 AM75 °FBroken clouds.7 mph61%29.65 "HgN/A
6:00 AM75 °FBroken clouds.7 mph61%29.65 "HgN/A
5:30 AM75 °FBroken clouds.5 mph65%29.65 "HgN/A
5:00 AM75 °FPartly cloudy.5 mph65%29.65 "HgN/A
4:30 AM75 °FPassing clouds.9 mph65%29.62 "HgN/A
4:00 AM75 °FPartly cloudy.13 mph69%29.65 "HgN/A
3:30 AM75 °FPartly cloudy.8 mph69%29.65 "HgN/A
3:00 AM75 °FPartly cloudy.9 mph69%29.59 "HgN/A
2:30 AM75 °FPassing clouds.8 mph74%29.59 "HgN/A
2:00 AM75 °FPartly cloudy.10 mph74%29.59 "HgN/A
1:30 AM75 °FLight rain. Partly cloudy.10 mph74%29.59 "HgN/A
1:00 AM77 °FPartly cloudy.13 mph69%29.59 "HgN/A
12:30 AM79 °FPartly cloudy.9 mph65%29.59 "HgN/A
12:00 AM79 °FPartly cloudy.10 mph65%29.56 "HgN/A
11:30 PM
Fri, Jun 24
79 °FPartly cloudy.13 mph70%29.59 "HgN/A
11:00 PM79 °FPartly cloudy.14 mph74%29.59 "HgN/A
10:30 PM81 °FPartly cloudy.12 mph70%29.56 "HgN/A
10:00 PM82 °FPartly cloudy.13 mph62%29.56 "HgN/A
9:30 PM82 °FPartly cloudy.10 mph66%29.53 "HgN/A
9:00 PM82 °FPartly cloudy.10 mph70%29.53 "HgN/A
8:30 PM82 °FSprinkles. Partly cloudy.9 mph74%29.53 "Hg5 mi
8:00 PM86 °FPartly cloudy.13 mph66%29.50 "HgN/A
7:30 PM84 °FBroken clouds.14 mph70%29.50 "Hg6 mi
7:00 PM84 °FBroken clouds.14 mph70%29.50 "Hg6 mi
6:30 PM86 °FBroken clouds.14 mph66%29.50 "HgN/A
6:00 PM86 °FBroken clouds.12 mph66%29.47 "HgN/A
5:30 PM84 °FBroken clouds.18 mph70%29.47 "HgN/A
5:03 PM86 °FBroken clouds.17 mph66%29.47 "HgN/A
5:00 PM86 °FBroken clouds.14 mph66%29.47 "HgN/A
4:30 PM88 °FPartly sunny.14 mph62%29.47 "HgN/A
4:00 PM84 °FBroken clouds.10 mph70%29.50 "HgN/A
3:30 PM84 °FScattered showers. Broken clouds.14 mph70%29.50 "HgN/A
3:00 PM84 °FScattered showers. Broken clouds.15 mph70%29.50 "HgN/A
2:30 PM84 °FScattered showers. Partly sunny.15 mph70%29.50 "HgN/A
2:00 PM84 °FSprinkles. Partly sunny.16 mph70%29.50 "HgN/A
1:30 PM82 °FSprinkles. Partly sunny.20 mph70%29.53 "HgN/A
1:00 PM84 °FBroken clouds.12 mph66%29.53 "HgN/A
12:30 PM84 °FBroken clouds.15 mph62%29.56 "HgN/A
12:00 PM84 °FBroken clouds.12 mph62%29.56 "HgN/A
11:30 AM84 °FBroken clouds.21 mph62%29.56 "HgN/A
11:03 AM84 °FBroken clouds.17 mph70%29.59 "HgN/A
11:00 AM84 °FBroken clouds.18 mph66%29.59 "HgN/A
10:30 AM84 °FBroken clouds.14 mph70%29.59 "HgN/A
10:00 AM84 °FBroken clouds.13 mph70%29.59 "HgN/A
9:30 AM82 °FScattered showers. Broken clouds.13 mph79%29.59 "HgN/A
9:00 AM81 °FBroken clouds.12 mph84%29.59 "HgN/A
8:30 AM81 °FBroken clouds.10 mph79%29.62 "HgN/A
8:00 AM81 °FBroken clouds.13 mph79%29.59 "HgN/A
Weather by CustomWeather, © 2016

See weather overviewHow to use our weather pages